Other Public Products
Issued by NWS Grand Forks, ND

Home | Current Version | Previous Version | Text Only | Print | Product List | Glossary Off
Versions: 1 2 3 4 5 6 7 8 9 10 11 12 13 14 15 16 17 18 19 20 21 22 23 24 25 26 27 28 29 30 31 32 33 34 35 36 37 38 39 40 41 42 43 44 45 46 47 48 49 50

000
FPUS83 KFGF 070131
OPUFGF
PRAIRIE TO PINES WEATHER ROUNDUP
NATIONAL WEATHER SERVICE EASTERN NORTH DAKOTA/GRAND FORKS ND
700 PM CST TUE DEC 06 2016

 **SATELLITE DATA USED TO AUGMENT SKY COVER AT AUTOMATED STATIONS**
 *****  WEATHER ACROSS EASTERN NORTH DAKOTA  *****

CITY           SKY/WX    TMP DP  RH WIND       PRES   REMARKS
GRAND FORKS    LGT SNOW  20  15  81 NW32G41   29.60R VSB 1   WCI   1
GRAND FORKS AF LGT SNOW  18  12  79 NW25G41   29.64R WCI  -1
GRAND CITY NWS   N/A     19 N/A N/A NW10        N/A  WCI   8
BUXTON           N/A     38  38  99 W31         N/A
DEVILS LAKE    HVY SNOW  10   9  92 NW33G47   29.73R VSB 1/4 WCI -13
FARGO          CLOUDY    17  10  74 W32G43    29.69R HAZE    WCI  -3
WAHPETON ARPT  CLOUDY    18  12  79 W33G40    29.75R WCI  -3
$$

 *****  WEATHER ACROSS CENTRAL AND WESTERN NORTH DAKOTA  *****

CITY           SKY/WX    TMP DP  RH WIND       PRES   REMARKS
JAMESTOWN      LGT SNOW  11   8  88 NW33G41   29.79R VSB 3/4 WCI -12
BISMARCK       CLOUDY     6   1  80 W18G30    30.00R WCI -13
MINOT          LGT SNOW   6   2  83 W28G43    29.93R VSB 1   WCI -17
MINOT AFB      LGT SNOW   3   0  85 NW33G40   29.93R VSB 3/4 WCI -23
GARRISON         N/A      4   0  83 NW32G41   29.95R WCI -21
WILLISTON      CLOUDY     4  -3  73 NW23G30   30.12R WCI -18
DICKINSON      CLOUDY     1  -5  75 NW25G35   30.01R HAZE    WCI -23
HETTINGER      CLEAR      2  -4  76 NW24      30.03R WCI -21
$$

 *****  OTHER OBSERVATIONS NORTHEAST NORTH DAKOTA  *****

CITY           SKY/WX    TMP DP  RH WIND       PRES   REMARKS
WALHALLA       LGT SNOW  19  19 100 NW21G32   29.63R VSB 1   WCI   3
LANGDON        SNOW      14  12  92 NW36G43   29.63R VSB 1/4 WCI  -8
CAVALIER       FOG       23  21  93 NW28G36   29.60R VSB 1/2 WCI   6
GRAFTON        CLOUDY    19  19 100 NW29G38   29.61R FOG     WCI   1
CANDO          LGT SNOW  12  10  92 NW29G35   29.77R WCI  -9
FORT TOTTEN    NOT AVBL
ROLLA          HVY SNOW  10  10 100 NW40G51   29.74R VSB 1/4 WCI -14
RUGBY          LGT SNOW   7   5  92 NW33G41   29.84R VSB 1   WCI -18
 ***** THE ABOVE OBSERVATIONS ARE NON NWS ARE NOT QUALITY
        CONTROLLED AND MAY MIS-REPORT RAIN FOR SNOW...
$$

 *****  OTHER OBSERVATIONS SOUTHEAST NORTH DAKOTA *****

CITY           SKY/WX    TMP DP  RH WIND       PRES   REMARKS
COOPERSTOWN    SNOW      12   9  85 W36G45    29.72R VSB 1/2 WCI -11
VALLEY CITY    LGT SNOW  10  10 100 NW33G51   29.77R VSB 1   WCI -13
OAKES          NOT AVBL
GWINNER        CLOUDY    14  10  85 W30G46    29.81R WCI  -7
BUFFALO          N/A     12   9  86 N32G46      N/A  WCI -10
WYNDMERE         N/A     16  12  86 W26         N/A  WCI  -3
 ***** THE ABOVE OBSERVATIONS ARE NON NWS ARE NOT QUALITY
       CONTROLLED AND MAY MIS-REPORT RAIN FOR SNOW...
$$

  *****  WEATHER ACROSS NORTHERN MINNESOTA  *****

CITY           SKY/WX    TMP DP  RH WIND       PRES   REMARKS
FLAG ISLAND    PTCLDY    23  19  86 W8        29.42R WCI  14
WARROAD        FLURRIES  21  18  86 W5        29.44R WCI  15
ROSEAU         LGT SNOW  23  18  80 CALM      29.44R
HALLOCK        SNOW      23  21  93 NW39G46   29.52R VSB 1/2 WCI   3
THF RVR FALLS    N/A    N/A N/A N/A MISG        N/A
HALSTAD          N/A     19  16  89 NW30G41     N/A  WCI  -1
FOSSTON        LGT SNOW  19  18  93 W21G28    29.52R WCI   3
BAUDETTE       FLURRIES  21  18  88 W5        29.42R WCI  15
WASKISH        CLOUDY    21  19  93 NW10      29.43R WCI  10
CROOKSTON      SNOW      19  18  93 NW37G45   29.57R VSB 1/2 WCI  -1
$$
  *****  WEATHER ACROSS CENTRAL AND WEST MINNESOTA  *****

CITY           SKY/WX    TMP DP  RH WIND       PRES   REMARKS
BEMIDJI        LGT SNOW  21  19  89 W14       29.47R WCI   8
PARK RAPIDS    LGT SNOW  20  14  77 W24       29.50R WCI   3
WADENA         LGT SNOW  16  12  86 W21G29    29.59R WCI  -2
DETROIT LAKES  LGT SNOW  18  14  86 W26G39    29.59R WCI  -1
MOORHEAD       MIX PCPN  16  10  79 W32G41    29.69R WCI  -5
FERGUS FALLS   LGT SNOW  16  12  86 NW31G43   29.76R VSB 1   WCI  -5
ELBOW LAKE     LGT SNOW  15  13  92 NW26G35   29.74R VSB 3/4 WCI  -5
MORRIS MN      FLURRIES  16  10  79 W26G39    29.77R WCI  -3
STAPLES        LGT SNOW  16  12  86 W21G28    29.59R WCI  -2
WHEATON        LGT SNOW  18  14  86 W20G36    29.81R WCI   1
$$
  *****  WEATHER ELSEWHERE ACROSS MINNESOTA  *****

CITY           SKY/WX    TMP DP  RH WIND       PRES   REMARKS
DULUTH         LGT SNOW  20  16  84 SW18G26   29.46F FOG     WCI   5
INTRNTL FALLS  LGT SNOW  19  17  92 CALM      29.40R FOG
ELY            LGT SNOW  19  16  86 S7        29.42S WCI  10
CLOQUET        LGT SNOW  19  16  86 SW10G22   29.49R WCI   8
BRAINERD       LGT SNOW  19  13  77 W22       29.56R WCI   2
HIBBING        FLURRIES  19  16  88 S10       29.40S WCI   7
ALEXANDRIA     LGT SNOW  16  13  88 W26G36    29.69R VSB 1   WCI  -3
SAINT CLOUD    FLURRIES  18  13  80 W18G37    29.70R WCI   2
MINNEAPOLIS    FLURRIES  21  11  65 W24G30    29.77R WCI   4
$$

  *****  WEATHER ACROSS SOUTH DAKOTA  *****

CITY           SKY/WX    TMP DP  RH WIND       PRES   REMARKS
SIOUX FALLS    LGT SNOW  16   9  74 W22G29    29.97R WCI  -2
BROOKINGS      FLURRIES  11   5  77 W24G32    29.90R WCI  -9
WATERTOWN      LGT SNOW  10   6  84 W21G32    29.86S FOG     WCI  -9
HURON          CLEAR     11   3  70 W24G35    30.00R WCI  -9
SISSETON         N/A     15   8  73 NW29G41   29.79R WCI  -5
ABERDEEN       CLOUDY    12   3  67 NW28G37   29.92R WCI  -9
MITCHELL       CLEAR     15   7  70 NW22      30.05R WCI  -3
PIERRE         PTCLDY    11   3  70 NW31G38   30.05R WCI -11
MOBRIDGE       CLOUDY    10   0  63 NW30G44   29.99R WCI -12
RAPID CITY     CLEAR      8   0  69 N18       30.03R WCI -11
$$

  *****  SOME WEATHER IN NEARBY STATES *****

CITY           SKY/WX    TMP DP  RH WIND       PRES   REMARKS
GLASGOW MT     CLEAR      0  -8  69 W22       30.21R WCI -23
GREAT FALLS MT CLOUDY    -1  -7  75 NW6       30.22R WCI -13
CHEYENNE WY    LGT SNOW  16   9  74 E9        29.83R WCI   4
SCOTTSBLUFF NE CLOUDY    19   3  49 N9        29.98R WCI   8
OMAHA NE       CLEAR     28  11  48 NW12      30.07R WCI  18
DES MOINES IA  PTCLDY    28  14  55 W9        30.01R WCI  19
DAVENPORT IA   CLEAR     28  22  78 W10       29.97R WCI  19
CHICAGO IL     PTCLDY    30  22  72 W14G23    29.89R WCI  19
EAU CLAIRE WI  FLURRIES  23  16  74 SW15G24   29.73R WCI  10
LA CROSSE WI   CLOUDY    27  17  66 SW15      29.84R WCI  15
$$

  *****  SOME NATIONAL WEATHER *****

CITY           SKY/WX    TMP DP  RH WIND       PRES   REMARKS
LA GUARDIA NY  LGT RAIN  43  36  76 NE15      29.95F
RALEIGH NC     CLOUDY    43  40  89 VRB5      29.79R
ATLANTA GA     CLOUDY    55  53  93 W13G20    29.89R
NEW ORLEANS LA CLOUDY    57  54  89 N8        30.01R
OKLAHOMA CITY  CLOUDY    40  23  50 N9        30.08R
ALBUQUERQUE NM NOT AVBL
SALT LAKE CITY MOCLDY    27  21  78 W3        29.86R
LOS ANGELES CA CLOUDY    58  53  84 W10       29.97S
BOISE ID       PTCLDY    23  18  81 NW7       30.03R WCI  15
SEATTLE WA     PTCLDY    35  25  66 NW5       30.25R
$$

*** WEATHER ACROSS MANITOBA...SASKATCHEWAN AND ONTARIO ***
                ***ONTARIO***

CITY           SKY/WX    TMP DP  RH WIND       PRES   REMARKS
GERALDTON      NOT AVBL
THUNDER BAY    NOT AVBL
SIOUX LOOKOUT  NOT AVBL
TORONTO        NOT AVBL
BIG TROUT LK   NOT AVBL
PICKLE LAKE    NOT AVBL
DRYDEN         NOT AVBL
KENORA         NOT AVBL
$$
                *** MANITOBA***

CITY           SKY/WX    TMP DP  RH WIND       PRES   REMARKS
BRANDON        NOT AVBL
DAUPHIN        NOT AVBL
ISLAND LAKE    NOT AVBL
PILOT MOUND    NOT AVBL
THE PAS        NOT AVBL
THOMPSON       NOT AVBL
WINNIPEG       NOT AVBL
$$
                ***SASKATCHEWAN***

CITY           SKY/WX    TMP DP  RH WIND       PRES   REMARKS
ESTEVAN        NOT AVBL
KINDERSLEY     NOT AVBL
LLOYDMINSTER   NOT AVBL
PRINCE ALBERT  NOT AVBL
REGINA         NOT AVBL
YORKTON        NOT AVBL
N. BATTLEFORD  NOT AVBL
LA RONGE       NOT AVBL
SASKATOON      NOT AVBL
SWIFT CURRENT  CLOUDY    -2  -6  84 NW23G30   30.15R WCC1F1C2F2C3F3C4F4C5F5C6F6C7F7C8F8C9F9CaFaCbFbCcFcCdFdCe!



USA.gov is the U.S. government's official web portal to all federal, state and local government web resources and services.